Lordsburg, NM

9:32 AM MST on December 17, 2017 (GMT -0700)
Lordsburg

Weather History for KLSB - October, 2012

Change the Weather History Date:

Friday, October 19, 2012

  Actual Average Record
Temperature  
Mean Temperature 68 °F -  
Max Temperature 86 °F 76 °F 84 °F (2015)
Min Temperature 50 °F 40 °F 35 °F (2013)
Cooling Degree Days 3    
Growing Degree Days 18 (Base 50)    
Moisture  
Dew Point 30 °F    
Average Humidity 31    
Maximum Humidity 62    
Minimum Humidity 11    
Precipitation  
Precipitation 0.00 in - - ()
Sea Level Pressure  
Sea Level Pressure 30.04 in    
Wind  
Wind Speed 3 mph ()    
Max Wind Speed 9 mph    
Max Gust Speed -    
Visibility 10.0 miles    
Events      
Averages and records for this station are not official NWS values.
T = Trace of Precipitation, MM = Missing Value Source: Averaged Metar Reports

Daily Weather History Graph

Daily Weather History Graph

Search for Another Location

Airport or City:

Trip Planner

Search our weather history database for the weather conditions in past years. The results will help you decide how hot, cold, wet, or windy it might be!

Date:

Astronomy

Oct. 19, 2012 Rise Set
Actual Time 7:23 AM MDT 6:34 PM MDT
Civil Twilight 6:58 AM MDT 7:00 PM MDT
Nautical Twilight 6:29 AM MDT 7:29 PM MDT
Astronomical Twilight 6:00 AM MDT 7:58 PM MDT
Moon 12:01 PM MDT (10/19) 10:25 PM MDT (10/19)
Length of Visible Light 12h 01m
Length of Day
11h 10m
Waxing Crescent, 24% of the Moon is Illuminated
Oct 19
Waxing Crescent
Oct 21
First Quarter
Oct 29
Full
Nov 6
Last Quarter
Nov 13
New

Hourly Weather History & Observations

Time (MDT) Temp. Dew Point Humidity Pressure Visibility Wind Dir Wind Speed Gust Speed Precip Events Conditions
12:15 AM 59.0 °F 35.6 °F 42% 30.08 in 10.0 mi NNW 3.5 mph - N/A   Clear
12:35 AM 60.8 °F 35.6 °F 39% 30.08 in 10.0 mi NNW 3.5 mph - N/A   Clear
12:55 AM 59.0 °F 35.6 °F 42% 30.07 in 10.0 mi NW 5.8 mph - N/A   Clear
1:15 AM 55.4 °F 35.6 °F 47% 30.07 in 10.0 mi Calm Calm - N/A   Clear
1:35 AM 55.4 °F 37.4 °F 51% 30.07 in 10.0 mi NNW 3.5 mph - N/A   Clear
1:55 AM 55.4 °F 37.4 °F 51% 30.08 in 10.0 mi Calm Calm - N/A   Clear
2:15 AM 57.2 °F 37.4 °F 48% 30.08 in 10.0 mi Calm Calm - N/A   Clear
2:35 AM 53.6 °F 35.6 °F 51% 30.08 in 10.0 mi Calm Calm - N/A   Clear
2:55 AM 53.6 °F 37.4 °F 54% 30.07 in 10.0 mi NW 4.6 mph - N/A   Clear
3:15 AM 51.8 °F 37.4 °F 58% 30.08 in 10.0 mi West 3.5 mph - N/A   Clear
3:35 AM 53.6 °F 39.2 °F 58% 30.07 in 10.0 mi West 8.1 mph - N/A   Clear
3:55 AM 53.6 °F 37.4 °F 54% 30.08 in 10.0 mi NW 3.5 mph - N/A   Clear
4:15 AM 51.8 °F 37.4 °F 58% 30.07 in 10.0 mi West 3.5 mph - N/A   Clear
4:35 AM 50.0 °F 35.6 °F 58% 30.07 in 10.0 mi NNW 3.5 mph - N/A   Clear
4:55 AM 50.0 °F 33.8 °F 54% 30.08 in 10.0 mi NW 5.8 mph - N/A   Clear
5:15 AM 50.0 °F 35.6 °F 58% 30.08 in 10.0 mi WNW 9.2 mph - N/A   Clear
5:35 AM 51.8 °F 37.4 °F 58% 30.08 in 10.0 mi West 8.1 mph - N/A   Clear
5:55 AM 51.8 °F 37.4 °F 58% 30.08 in 10.0 mi WNW 6.9 mph - N/A   Clear
6:15 AM 50.0 °F 37.4 °F 62% 30.08 in 10.0 mi WNW 6.9 mph - N/A   Clear
6:35 AM 50.0 °F 37.4 °F 62% 30.08 in 10.0 mi West 6.9 mph - N/A   Clear
6:55 AM 51.8 °F 33.8 °F 50% 30.08 in 10.0 mi WNW 5.8 mph - N/A   Clear
7:15 AM 53.6 °F 30.2 °F 41% 30.08 in 10.0 mi NW 6.9 mph - N/A   Clear
7:35 AM 53.6 °F 26.6 °F 35% 30.08 in 10.0 mi West 8.1 mph - N/A   Clear
7:55 AM 55.4 °F 28.4 °F 36% 30.08 in 10.0 mi West 8.1 mph - N/A   Clear
8:15 AM 57.2 °F 28.4 °F 33% 30.08 in 10.0 mi NE 3.5 mph - N/A   Clear
8:35 AM 50.0 °F 32.0 °F 50% 30.10 in 10.0 mi ESE 4.6 mph - N/A   Clear
8:55 AM 55.4 °F 33.8 °F 44% 30.11 in 10.0 mi ESE 3.5 mph - N/A   Clear
9:15 AM 59.0 °F 35.6 °F 42% 30.12 in 10.0 mi ESE 6.9 mph - N/A   Clear
9:35 AM 60.8 °F 33.8 °F 36% 30.13 in 10.0 mi Calm Calm - N/A   Clear
9:55 AM 62.6 °F 33.8 °F 34% 30.13 in 10.0 mi Calm Calm - N/A   Clear
10:15 AM 64.4 °F 32.0 °F 30% 30.13 in 10.0 mi Calm Calm - N/A   Clear
10:35 AM 68.0 °F 32.0 °F 26% 30.13 in 10.0 mi Calm Calm - N/A   Clear
10:55 AM 69.8 °F 32.0 °F 25% 30.12 in 10.0 mi Calm Calm - N/A   Clear
11:15 AM 71.6 °F 30.2 °F 22% 30.11 in 10.0 mi Calm Calm - N/A   Clear
11:35 AM 73.4 °F 28.4 °F 19% 30.11 in 10.0 mi Calm Calm - N/A   Clear
11:55 AM 75.2 °F 28.4 °F 18% 30.10 in 10.0 mi Calm Calm - N/A   Clear
12:15 PM 77.0 °F 26.6 °F 16% 30.10 in 10.0 mi Calm Calm - N/A   Clear
12:35 PM 78.8 °F 24.8 °F 14% 30.08 in 10.0 mi Calm Calm - N/A   Clear
12:55 PM 78.8 °F 23.0 °F 13% 30.08 in 10.0 mi Calm Calm - N/A   Clear
1:15 PM 80.6 °F 23.0 °F 12% 30.06 in 10.0 mi WNW 4.6 mph - N/A   Clear
1:35 PM 80.6 °F 23.0 °F 12% 30.04 in 10.0 mi Calm Calm - N/A   Clear
1:55 PM 82.4 °F 23.0 °F 11% 30.03 in 10.0 mi NNE 3.5 mph - N/A   Clear
2:15 PM 82.4 °F 24.8 °F 12% 30.02 in 10.0 mi Calm Calm - N/A   Clear
2:35 PM 82.4 °F 26.6 °F 13% 30.01 in 10.0 mi Calm Calm - N/A   Clear
2:55 PM 84.2 °F 28.4 °F 13% 30.00 in 10.0 mi West 5.8 mph - N/A   Clear
3:15 PM 86.0 °F 28.4 °F 12% 30.01 in 10.0 mi West 3.5 mph - N/A   Clear
3:35 PM 86.0 °F 28.4 °F 12% 29.99 in 10.0 mi Calm Calm - N/A   Clear
3:55 PM 86.0 °F 28.4 °F 12% 29.99 in 10.0 mi WSW 6.9 mph - N/A   Clear
4:15 PM 86.0 °F 28.4 °F 12% 29.99 in 10.0 mi West 8.1 mph - N/A   Clear
4:35 PM 84.2 °F 26.6 °F 12% 29.98 in 10.0 mi NNW 4.6 mph - N/A   Clear
4:55 PM 84.2 °F 26.6 °F 12% 29.98 in 10.0 mi WNW 4.6 mph - N/A   Clear
5:15 PM 84.2 °F 24.8 °F 11% 29.97 in 10.0 mi WNW 6.9 mph - N/A   Clear
5:35 PM 82.4 °F 24.8 °F 12% 29.97 in 10.0 mi Calm Calm - N/A   Clear
5:55 PM 82.4 °F 26.6 °F 13% 29.97 in 10.0 mi Calm Calm - N/A   Clear
6:15 PM 80.6 °F 26.6 °F 14% 29.97 in 10.0 mi West 4.6 mph - N/A   Clear
6:35 PM 77.0 °F 26.6 °F 16% 29.97 in 10.0 mi Calm Calm - N/A   Clear
6:55 PM 75.2 °F 26.6 °F 17% 29.97 in 10.0 mi Calm Calm - N/A   Clear
7:15 PM 71.6 °F 24.8 °F 17% 29.97 in 10.0 mi WSW 3.5 mph - N/A   Clear
7:35 PM 69.8 °F 26.6 °F 20% 29.98 in 10.0 mi WSW 5.8 mph - N/A   Clear
7:55 PM 69.8 °F 26.6 °F 20% 29.98 in 10.0 mi WSW 5.8 mph - N/A   Clear
8:15 PM 69.8 °F 26.6 °F 20% 29.98 in 10.0 mi West 8.1 mph - N/A   Clear
8:35 PM 66.2 °F 26.6 °F 23% 29.98 in 10.0 mi Calm Calm - N/A   Clear
8:55 PM 68.0 °F 28.4 °F 23% 29.98 in 10.0 mi Calm Calm - N/A   Clear
9:15 PM 68.0 °F 28.4 °F 23% 29.99 in 10.0 mi Calm Calm - N/A   Clear
9:35 PM 66.2 °F 28.4 °F 24% 29.99 in 10.0 mi Calm Calm - N/A   Clear
9:55 PM 64.4 °F 24.8 °F 22% 29.99 in 10.0 mi Calm Calm - N/A   Clear
10:15 PM 60.8 °F 26.6 °F 27% 29.99 in 10.0 mi Calm Calm - N/A   Clear
10:35 PM 62.6 °F 26.6 °F 26% 29.99 in 10.0 mi Calm Calm - N/A   Clear
10:55 PM 62.6 °F 26.6 °F 26% 29.99 in 10.0 mi Calm Calm - N/A   Clear
11:15 PM 62.6 °F 26.6 °F 26% 30.00 in 10.0 mi SW 3.5 mph - N/A   Clear
11:35 PM 60.8 °F 24.8 °F 25% 30.00 in 10.0 mi Calm Calm - N/A   Clear
11:55 PM 59.0 °F 24.8 °F 27% 29.99 in 10.0 mi Calm Calm - N/A   Clear